Search the data

BODC Cruise Metadata Report for Prince Madog (74PD) cruise PM4DW11

Introduction

This report collates information from the BODC cruise inventory and oceanographic databases. It presents

Cruise Inventory Information

Long name Prince Madog (74PD) cruise PM4DW11
Short name PM4DW11
Objectives and Narrative Liverpool Bay Front Survey.
Ship Prince Madog
Departure Port Menai Bridge, United Kingdom
Departure Date 1978-06-05
Arrival Port Menai Bridge, United Kingdom
Arrival Date 1978-06-09
Principal Scientist(s) Steven P R Czitrom Baus (University of Wales, Bangor School of Ocean Sciences)
Responsible Organisation University of Wales, Bangor School of Ocean Sciences
Associated Project(s)
IHB Sea Areas Visited Irish Sea and St. George's Channel
Marsden Squares Visited 181;133/181;134
Work Area Description
Work Area Bounding Polygon 53N,5W; 54N,5W; 54N,3W; 53N,3W; 53N,5W
Southern Limit 53N
Northern Limit 54N
Western Limit 5W
Eastern Limit 3W

Cruise Inventory Datasets

Physical oceanography  
CTD stations Quantity: number of stations = 87
Description:  

Cruise Inventory Mooring/Buoy Operations

No information on datasets is currently available

Summary of BODC Data Holdings for the Cruise

National Oceanographic Database

Summary

# Series Instrument Description Parameters
87 CTD/STD cast Salinity of the water column
Temperature of the water column
Vertical spatial coordinates

Note: Parameter terms are taken from the BODC Parameter Discovery Vocabulary XML (SKOS)

Full List

BODC Reference Instrument Description Date/Time Location  
63572 CTD/STD cast 1978-06-05 21:34Z 53° 41' N, 3° 19' W Click for more
63584 CTD/STD cast 1978-06-05 23:24Z 53° 40' N, 3° 25' W Click for more
63596 CTD/STD cast 1978-06-06 00:13Z 53° 40' N, 3° 33' W Click for more
63603 CTD/STD cast 1978-06-06 01:52Z 53° 40' N, 3° 40' W Click for more
63615 CTD/STD cast 1978-06-06 02:53Z 53° 40' N, 3° 46' W Click for more
63627 CTD/STD cast 1978-06-06 04:25Z 53° 41' N, 3° 53' W Click for more
63639 CTD/STD cast 1978-06-06 05:10Z 53° 40' N, 4° 0' W Click for more
63640 CTD/STD cast 1978-06-06 07:35Z 53° 32' N, 4° 6' W Click for more
63652 CTD/STD cast 1978-06-06 08:05Z 53° 32' N, 3° 59' W Click for more
63664 CTD/STD cast 1978-06-06 08:45Z 53° 32' N, 3° 52' W Click for more
63676 CTD/STD cast 1978-06-06 09:16Z 53° 32' N, 3° 45' W Click for more
63688 CTD/STD cast 1978-06-06 10:08Z 53° 33' N, 3° 39' W Click for more
63707 CTD/STD cast 1978-06-06 10:47Z 53° 33' N, 3° 33' W Click for more
63719 CTD/STD cast 1978-06-06 11:29Z 53° 33' N, 3° 26' W Click for more
63720 CTD/STD cast 1978-06-06 12:25Z 53° 29' N, 3° 26' W Click for more
63732 CTD/STD cast 1978-06-06 13:13Z 53° 25' N, 3° 33' W Click for more
63744 CTD/STD cast 1978-06-06 14:00Z 53° 25' N, 3° 40' W Click for more
63756 CTD/STD cast 1978-06-06 14:35Z 53° 25' N, 3° 46' W Click for more
63768 CTD/STD cast 1978-06-06 15:12Z 53° 25' N, 3° 53' W Click for more
63781 CTD/STD cast 1978-06-06 15:50Z 53° 24' N, 4° 0' W Click for more
63793 CTD/STD cast 1978-06-06 17:23Z 53° 32' N, 4° 14' W Click for more
63800 CTD/STD cast 1978-06-06 18:37Z 53° 41' N, 4° 13' W Click for more
63812 CTD/STD cast 1978-06-06 20:05Z 53° 49' N, 4° 12' W Click for more
63824 CTD/STD cast 1978-06-06 20:43Z 53° 49' N, 4° 6' W Click for more
63836 CTD/STD cast 1978-06-06 21:15Z 53° 49' N, 4° 0' W Click for more
63848 CTD/STD cast 1978-06-06 21:55Z 53° 49' N, 3° 52' W Click for more
63861 CTD/STD cast 1978-06-06 22:32Z 53° 48' N, 3° 46' W Click for more
63873 CTD/STD cast 1978-06-06 23:20Z 53° 48' N, 3° 39' W Click for more
63885 CTD/STD cast 1978-06-07 00:58Z 53° 48' N, 3° 33' W Click for more
63897 CTD/STD cast 1978-06-07 00:48Z 53° 49' N, 3° 26' W Click for more
63904 CTD/STD cast 1978-06-07 01:40Z 53° 49' N, 3° 20' W Click for more
63916 CTD/STD cast 1978-06-07 02:36Z 53° 53' N, 3° 19' W Click for more
63928 CTD/STD cast 1978-06-07 03:20Z 53° 57' N, 3° 19' W Click for more
63941 CTD/STD cast 1978-06-07 04:42Z 53° 57' N, 3° 27' W Click for more
63953 CTD/STD cast 1978-06-07 05:20Z 53° 57' N, 3° 33' W Click for more
63965 CTD/STD cast 1978-06-07 06:44Z 53° 57' N, 3° 40' W Click for more
63977 CTD/STD cast 1978-06-07 07:30Z 53° 57' N, 3° 46' W Click for more
63989 CTD/STD cast 1978-06-07 09:20Z 53° 57' N, 3° 53' W Click for more
63990 CTD/STD cast 1978-06-07 10:17Z 53° 57' N, 4° 0' W Click for more
64004 CTD/STD cast 1978-06-07 11:50Z 53° 57' N, 4° 6' W Click for more
64016 CTD/STD cast 1978-06-07 12:38Z 53° 57' N, 4° 13' W Click for more
64028 CTD/STD cast 1978-06-07 14:34Z 54° 5' N, 4° 13' W Click for more
64041 CTD/STD cast 1978-06-07 15:24Z 54° 4' N, 4° 5' W Click for more
64053 CTD/STD cast 1978-06-07 16:11Z 54° 4' N, 4° 0' W Click for more
64065 CTD/STD cast 1978-06-07 17:15Z 54° 3' N, 3° 51' W Click for more
64077 CTD/STD cast 1978-06-07 18:03Z 54° 4' N, 3° 45' W Click for more
64089 CTD/STD cast 1978-06-07 18:48Z 54° 4' N, 3° 39' W Click for more
64090 CTD/STD cast 1978-06-07 19:30Z 54° 4' N, 3° 31' W Click for more
64108 CTD/STD cast 1978-06-07 20:15Z 54° 4' N, 3° 27' W Click for more
64121 CTD/STD cast 1978-06-07 21:40Z 54° 13' N, 3° 32' W Click for more
64133 CTD/STD cast 1978-06-07 22:38Z 54° 12' N, 3° 40' W Click for more
64145 CTD/STD cast 1978-06-07 23:23Z 54° 12' N, 3° 46' W Click for more
64157 CTD/STD cast 1978-06-08 00:30Z 54° 12' N, 3° 52' W Click for more
64169 CTD/STD cast 1978-06-08 01:45Z 54° 4' N, 4° 1' W Click for more
64170 CTD/STD cast 1978-06-08 02:46Z 54° 6' N, 4° 1' W Click for more
64182 CTD/STD cast 1978-06-08 03:30Z 54° 13' N, 3° 59' W Click for more
64194 CTD/STD cast 1978-06-08 04:15Z 54° 12' N, 4° 7' W Click for more
64201 CTD/STD cast 1978-06-08 05:42Z 54° 17' N, 3° 52' W Click for more
64213 CTD/STD cast 1978-06-08 06:43Z 54° 13' N, 3° 52' W Click for more
64225 CTD/STD cast 1978-06-08 08:05Z 54° 5' N, 3° 45' W Click for more
64237 CTD/STD cast 1978-06-08 08:43Z 54° 6' N, 3° 43' W Click for more
64249 CTD/STD cast 1978-06-08 09:22Z 54° 4' N, 3° 33' W Click for more
64250 CTD/STD cast 1978-06-08 09:50Z 54° 4' N, 3° 27' W Click for more
64262 CTD/STD cast 1978-06-08 10:25Z 54° 4' N, 3° 20' W Click for more
64274 CTD/STD cast 1978-06-08 11:03Z 54° 0' N, 3° 19' W Click for more
64286 CTD/STD cast 1978-06-08 11:42Z 53° 57' N, 3° 19' W Click for more
64298 CTD/STD cast 1978-06-08 12:32Z 53° 57' N, 3° 26' W Click for more
64305 CTD/STD cast 1978-06-08 13:19Z 53° 57' N, 3° 34' W Click for more
64317 CTD/STD cast 1978-06-08 14:05Z 53° 57' N, 3° 40' W Click for more
64329 CTD/STD cast 1978-06-08 14:40Z 53° 57' N, 3° 46' W Click for more
64330 CTD/STD cast 1978-06-08 15:20Z 53° 57' N, 3° 52' W Click for more
64342 CTD/STD cast 1978-06-08 16:32Z 53° 49' N, 3° 53' W Click for more
64354 CTD/STD cast 1978-06-08 17:17Z 53° 48' N, 3° 46' W Click for more
64366 CTD/STD cast 1978-06-08 18:00Z 53° 48' N, 3° 40' W Click for more
64378 CTD/STD cast 1978-06-08 18:45Z 53° 49' N, 3° 33' W Click for more
64391 CTD/STD cast 1978-06-08 19:20Z 53° 48' N, 3° 25' W Click for more
64409 CTD/STD cast 1978-06-08 20:00Z 53° 49' N, 3° 19' W Click for more
64410 CTD/STD cast 1978-06-08 20:50Z 53° 48' N, 3° 26' W Click for more
64422 CTD/STD cast 1978-06-08 21:40Z 53° 49' N, 3° 33' W Click for more
64434 CTD/STD cast 1978-06-08 22:27Z 53° 49' N, 3° 40' W Click for more
64446 CTD/STD cast 1978-06-08 23:10Z 53° 49' N, 3° 46' W Click for more
64458 CTD/STD cast 1978-06-09 00:05Z 53° 49' N, 3° 52' W Click for more
64471 CTD/STD cast 1978-06-09 01:23Z 53° 41' N, 4° 0' W Click for more
64483 CTD/STD cast 1978-06-09 02:54Z 53° 41' N, 3° 54' W Click for more
64495 CTD/STD cast 1978-06-09 03:42Z 53° 40' N, 3° 46' W Click for more
64502 CTD/STD cast 1978-06-09 04:55Z 53° 41' N, 3° 40' W Click for more
64514 CTD/STD cast 1978-06-09 05:40Z 53° 41' N, 3° 34' W Click for more

Project Database

No data currently held for this cruise in the BODC Project Database

References

Track Charts

Track Chart

Reports

No reports currently available